This is the latest recevied weather packets stored in our database for station/object DB0LS-15. If no packets are shown the sender has not sent any weather packets the latest 10 day(s).
| Time | Temp. | Humidity | Pressure | Rain* | Wind** | Luminosity | Snow |
|---|---|---|---|---|---|---|---|
| 1777835122 | 22.22° C | 36% | 992.4 hPa | 0 mm | - | - | - |
| 1777834518 | 22.78° C | 35% | 992.5 hPa | 0 mm | - | - | - |
| 1777833975 | 22.78° C | 34% | 992.5 hPa | 0 mm | - | - | - |
| 1777833371 | 22.78° C | 34% | 992.4 hPa | 0 mm | - | - | - |
| 1777832767 | 23.33° C | 33% | 992.2 hPa | 0 mm | - | - | - |
| 1777832163 | 23.33° C | 32% | 992.3 hPa | 0 mm | - | - | - |
| 1777831560 | 23.33° C | 32% | 992.3 hPa | 0 mm | - | - | - |
| 1777830956 | 23.89° C | 31% | 992.3 hPa | 0 mm | - | - | - |
| 1777830352 | 24.44° C | 31% | 992.3 hPa | 0 mm | - | - | - |
| 1777829748 | 24.44° C | 30% | 992.2 hPa | 0 mm | - | - | - |
| 1777829145 | 25° C | 30% | 992.3 hPa | 0 mm | - | - | - |
| 1777828541 | 25° C | 29% | 992.3 hPa | 0 mm | - | - | - |
| 1777827937 | 25.56° C | 28% | 992.3 hPa | 0 mm | - | - | - |
| 1777827333 | 26.11° C | 28% | 992.3 hPa | 0 mm | - | - | - |
| 1777826759 | 26.11° C | 27% | 992.3 hPa | 0 mm | - | - | - |
| 1777826155 | 26.67° C | 27% | 992.4 hPa | 0 mm | - | - | - |
| 1777825552 | 26.67° C | 27% | 992.4 hPa | 0 mm | - | - | - |
| 1777824948 | 26.67° C | 28% | 992.5 hPa | 0 mm | - | - | - |
| 1777824344 | 26.67° C | 28% | 992.5 hPa | 0 mm | - | - | - |
| 1777823741 | 27.22° C | 28% | 992.4 hPa | 0 mm | - | - | - |
| 1777823137 | 27.78° C | 28% | 992.4 hPa | 0 mm | - | - | - |
| 1777822533 | 27.22° C | 28% | 992.5 hPa | 0 mm | - | - | - |
| 1777821929 | 27.22° C | 28% | 992.6 hPa | 0 mm | - | - | - |
| 1777821326 | 27.78° C | 27% | 992.9 hPa | 0 mm | - | - | - |
| 1777820722 | 27.22° C | 27% | 992.8 hPa | 0 mm | - | - | - |
* Rain latest hour (hover to see other rain measurements)
** Current wind speed in m/s (hover to see current wind gust speed)